Location: Northcutt
(34.7304°N, 84.4305°W)
Time: 18:45:57
(UTC+00:00)

SR - Pass Details

Date: 14 October 2022
Orbit: 577 x 874 km, 66.7° (Epoch: 05 December)

Event Time Altitude Azimuth Distance (km) Brightness Sun altitude
Rises 07:50:44 0° 346° (NNW) 3,263 - -47.1°
Reaches altitude 10° 07:53:45 10° 1° (N) 2,275 - -46.6°
Maximum altitude 07:57:44 22° 51° (NE) 1,535 - -45.9°
Drops below altitude 10° 08:01:28 10° 102° (ESE) 2,112 - -45.2°
Sets 08:04:08 0° 118° (ESE) 2,969 - -44.7°
